Weather History for Philadelphia Wings Airport, PA

Change the Weather History Date:

Wednesday, February 6, 2013

  Actual Average (KPNE) Record (KPNE)
Temperature  
Mean Temperature 32 °F -  
Max Temperature 39 °F 40 °F 70 °F (2008)
Min Temperature 26 °F 24 °F 10 °F (2007)
Degree Days  
Heating Degree Days 32    
Moisture  
Dew Point 26 °F    
Average Humidity 78    
Maximum Humidity 100    
Minimum Humidity 52    
Precipitation  
Precipitation 0.00 in - - ()
Sea Level Pressure  
Sea Level Pressure 30.13 in    
Wind  
Wind Speed 3 mph (WNW)    
Max Wind Speed 14 mph    
Max Gust Speed 21 mph    
Visibility 7 miles    
Events      
Averages and records for this station are not official NWS values.
T = Trace of Precipitation, MM = Missing Value Source: NWS Daily Summary

Daily Weather History Graph

Daily Weather History Graph

Search for Another Location

Airport:

Trip Planner

Search our weather history database for the weather conditions in past years. The results will help you decide how hot, cold, wet, or windy it might be!

Date:

Astronomy

Feb. 06, 2013 Rise Set
Actual Time 7:04 AM EST 5:26 PM EST
Civil Twilight 6:36 AM EST 5:54 PM EST
Nautical Twilight 6:04 AM EST 6:26 PM EST
Astronomical Twilight 5:32 AM EST 6:58 PM EST
Moon 3:45 AM EST (2/6) 1:42 PM EST (2/6)
Length of Visible Light 11h 18m
Length of Day
10h 21m
Waning Crescent, 17% of the Moon is Illuminated
Feb 6
Waning Crescent
Feb 10
New
Feb 17
First Quarter
Feb 25
Full
Mar 4
Last Quarter

Hourly Weather History & Observations

Time (EST) Temp. Windchill Dew Point Humidity Pressure Visibility Wind Dir Wind Speed Gust Speed Precip Events Conditions
12:15 AM 32.0 °F 28.7 °F 32.0 °F 100% 29.92 in 3.0 mi WNW 3.5 mph - N/A   Overcast
12:35 AM 32.0 °F - 32.0 °F 100% 29.92 in 3.0 mi Calm Calm - N/A   Overcast
12:55 AM 32.0 °F - 32.0 °F 100% 29.93 in 4.0 mi Calm Calm - N/A   Overcast
1:15 AM 32.0 °F - 32.0 °F 100% 29.92 in 4.0 mi Calm Calm - N/A   Overcast
1:35 AM 32.0 °F - 30.2 °F 93% 29.92 in 4.0 mi Calm Calm - N/A   Mostly Cloudy
2:15 AM 30.2 °F - 30.2 °F 100% 29.92 in 2.5 mi Calm Calm - N/A   Overcast
2:35 AM 30.2 °F - 30.2 °F 100% 29.93 in 2.5 mi Calm Calm - N/A   Unknown
2:55 AM 30.2 °F - 28.4 °F 93% 29.93 in 1.5 mi Calm Calm - N/A   Unknown
3:15 AM 28.4 °F - 26.6 °F 93% 29.92 in 1.0 mi Calm Calm - N/A   Unknown
3:35 AM 28.4 °F - 28.4 °F 100% 29.93 in 1.8 mi Calm Calm - N/A   Unknown
3:55 AM 28.4 °F - 26.6 °F 93% 29.94 in 2.0 mi Calm Calm - N/A   Unknown
4:15 AM 26.6 °F - 24.8 °F 93% 29.94 in 2.0 mi Calm Calm - N/A   Unknown
4:35 AM 26.6 °F 22.6 °F 26.6 °F 100% 29.96 in 1.8 mi WSW 3.5 mph - N/A   Unknown
4:55 AM 28.4 °F 24.6 °F 28.4 °F 100% 29.97 in 2.0 mi WSW 3.5 mph - N/A   Unknown
5:15 AM 28.4 °F - 26.6 °F 93% 29.98 in 2.0 mi Calm Calm - N/A   Unknown
5:35 AM 26.6 °F - 26.6 °F 100% 29.99 in 2.5 mi Calm Calm - N/A   Unknown
5:55 AM 30.2 °F 26.7 °F 28.4 °F 93% 30.01 in 3.0 mi West 3.5 mph - N/A   Unknown
6:15 AM 30.2 °F - 30.2 °F 100% 30.02 in 5.0 mi Calm Calm - N/A   Overcast
6:35 AM 30.2 °F - 28.4 °F 93% 30.03 in 4.0 mi Calm Calm - N/A   Overcast
6:55 AM 30.2 °F 26.7 °F 28.4 °F 93% 30.03 in 3.0 mi WSW 3.5 mph - N/A   Unknown
7:15 AM 30.2 °F 26.7 °F 28.4 °F 93% 30.04 in 2.0 mi WSW 3.5 mph - N/A   Unknown
7:35 AM 32.0 °F - 30.2 °F 93% 30.07 in 2.5 mi Calm Calm - N/A   Overcast
7:55 AM 30.2 °F 26.7 °F 28.4 °F 93% 30.08 in 2.5 mi WSW 3.5 mph - N/A   Overcast
8:15 AM 32.0 °F 28.7 °F 30.2 °F 93% 30.09 in 3.0 mi West 3.5 mph - N/A   Unknown
8:35 AM 32.0 °F 27.5 °F 30.2 °F 93% 30.09 in 4.0 mi West 4.6 mph - N/A   Clear
8:55 AM 33.8 °F 29.6 °F 28.4 °F 81% 30.10 in 5.0 mi WNW 4.6 mph - N/A   Scattered Clouds
9:15 AM 33.8 °F 27.0 °F 28.4 °F 81% 30.11 in 5.0 mi WNW 8.1 mph - N/A   Overcast
9:35 AM 33.8 °F 28.6 °F 28.4 °F 81% 30.11 in 7.0 mi West 5.8 mph - N/A   Overcast
10:15 AM 35.6 °F 30.7 °F 28.4 °F 75% 30.13 in 7.0 mi West 5.8 mph - N/A   Overcast
10:35 AM 35.6 °F 31.7 °F 28.4 °F 75% 30.14 in 7.0 mi West 4.6 mph - N/A   Overcast
10:55 AM 35.6 °F 28.6 °F 28.4 °F 75% 30.14 in 10.0 mi West 9.2 mph - N/A   Overcast
11:15 AM 37.4 °F 31.4 °F 28.4 °F 70% 30.14 in 7.0 mi WSW 8.1 mph - N/A   Mostly Cloudy
11:35 AM 37.4 °F 30.3 °F 28.4 °F 70% 30.14 in 10.0 mi West 10.4 mph - N/A   Mostly Cloudy
11:55 AM 35.6 °F 29.9 °F 26.6 °F 70% 30.15 in 10.0 mi WNW 6.9 mph - N/A   Overcast
12:15 PM 35.6 °F 30.7 °F 26.6 °F 70% 30.14 in 10.0 mi WNW 5.8 mph - N/A   Overcast
12:35 PM 37.4 °F 30.8 °F 26.6 °F 65% 30.14 in 10.0 mi West 9.2 mph - N/A   Overcast
12:55 PM 37.4 °F 32.8 °F 26.6 °F 65% 30.13 in 10.0 mi WNW 5.8 mph - N/A   Overcast
1:15 PM 37.4 °F 31.4 °F 23.0 °F 56% 30.13 in 10.0 mi NW 8.1 mph 16.1 mph N/A   Overcast
1:35 PM 37.4 °F 31.4 °F 24.8 °F 60% 30.14 in 10.0 mi WNW 8.1 mph - N/A   Overcast
1:55 PM 37.4 °F 32.1 °F 24.8 °F 60% 30.15 in 10.0 mi WNW 6.9 mph 20.7 mph N/A   Overcast
2:15 PM 37.4 °F 29.8 °F 23.0 °F 56% 30.15 in 10.0 mi WNW 11.5 mph 17.3 mph N/A   Overcast
2:35 PM 39.2 °F 31.2 °F 23.0 °F 52% 30.16 in 10.0 mi West 13.8 mph 20.7 mph N/A   Mostly Cloudy
2:55 PM 39.2 °F 33.6 °F 23.0 °F 52% 30.16 in 10.0 mi NW 8.1 mph - N/A   Overcast
3:15 PM 37.4 °F 32.1 °F 23.0 °F 56% 30.16 in 10.0 mi West 6.9 mph - N/A   Scattered Clouds
3:35 PM 37.4 °F 31.4 °F 23.0 °F 56% 30.17 in 10.0 mi WNW 8.1 mph - N/A   Scattered Clouds
3:55 PM 37.4 °F 30.8 °F 23.0 °F 56% 30.18 in 10.0 mi WNW 9.2 mph - N/A   Scattered Clouds
4:15 PM 37.4 °F 33.8 °F 23.0 °F 56% 30.19 in 10.0 mi WNW 4.6 mph - N/A   Scattered Clouds
4:35 PM 37.4 °F 30.8 °F 23.0 °F 56% 30.20 in 10.0 mi WNW 9.2 mph - N/A   Mostly Cloudy
4:55 PM 37.4 °F 30.8 °F 23.0 °F 56% 30.20 in 10.0 mi WNW 9.2 mph 17.3 mph N/A   Mostly Cloudy
5:15 PM 37.4 °F 34.9 °F 24.8 °F 60% 30.21 in 10.0 mi WNW 3.5 mph - N/A   Scattered Clouds
5:35 PM 35.6 °F 32.8 °F 23.0 °F 60% 30.23 in 10.0 mi WNW 3.5 mph - N/A   Clear
5:55 PM 35.6 °F 31.7 °F 23.0 °F 60% 30.23 in 10.0 mi WNW 4.6 mph - N/A   Clear
6:15 PM 35.6 °F 32.8 °F 23.0 °F 60% 30.24 in 10.0 mi NW 3.5 mph - N/A   Clear
6:35 PM 33.8 °F - 23.0 °F 65% 30.25 in 10.0 mi Calm Calm - N/A   Clear
6:55 PM 33.8 °F 30.8 °F 23.0 °F 65% 30.26 in 10.0 mi WNW 3.5 mph - N/A   Clear
7:15 PM 33.8 °F - 23.0 °F 65% 30.27 in 10.0 mi Calm Calm - N/A   Clear
7:35 PM 32.0 °F - 23.0 °F 69% 30.28 in 10.0 mi Calm Calm - N/A   Clear
7:55 PM 30.2 °F - 23.0 °F 75% 30.28 in 10.0 mi Calm Calm - N/A   Clear
8:15 PM 30.2 °F - 23.0 °F 75% 30.28 in 10.0 mi Calm Calm - N/A   Clear
8:35 PM 28.4 °F - 24.8 °F 86% 30.28 in 10.0 mi Calm Calm - N/A   Clear
8:55 PM 28.4 °F - 23.0 °F 80% 30.29 in 10.0 mi Calm Calm - N/A   Clear
9:15 PM 28.4 °F - 23.0 °F 80% 30.30 in 10.0 mi Calm Calm - N/A   Clear
9:35 PM 28.4 °F - 23.0 °F 80% 30.31 in 10.0 mi Calm Calm - N/A   Clear
9:55 PM 32.0 °F - 21.2 °F 64% 30.32 in 10.0 mi Calm Calm - N/A   Clear
10:15 PM 28.4 °F - 23.0 °F 80% 30.32 in 10.0 mi Calm Calm - N/A   Clear
10:35 PM 28.4 °F - 21.2 °F 74% 30.33 in 10.0 mi Calm Calm - N/A   Clear
10:55 PM 30.2 °F - 21.2 °F 69% 30.34 in 10.0 mi Calm Calm - N/A   Clear
11:15 PM 28.4 °F 24.6 °F 19.4 °F 69% 30.34 in 10.0 mi SSE 3.5 mph - N/A   Clear
11:35 PM 28.4 °F - 19.4 °F 69% 30.35 in 10.0 mi Calm Calm - N/A   Clear
11:55 PM 26.6 °F - 21.2 °F 80% 30.34 in 10.0 mi Calm Calm - N/A   Clear